| time (UTC) | temp F | wind direction | speed MPH | gust MPH | rain 1hr in | rain 24hr in | rain mn in | humidity % | barometer mb |
| 20260503195012 | 59 | 194 | 2.0 | 2.0 | 0.00 | 0.00 | 0.00 | 65 | 1026.1 |
| 20260503194511 | 59 | 220 | 1.0 | 1.0 | 0.00 | 0.00 | 0.00 | 68 | 1026.1 |
| 20260503194012 | 59 | 213 | 1.0 | 1.0 | 0.00 | 0.00 | 0.00 | 66 | 1026.1 |
| 20260503193508 | 59 | 186 | 1.0 | 2.0 | 0.00 | 0.00 | 0.00 | 66 | 1025.7 |
| 20260503193022 | 59 | 180 | 1.0 | 1.0 | 0.00 | 0.00 | 0.00 | 66 | 1025.7 |
| 20260503192509 | 59 | 235 | 2.0 | 3.0 | 0.00 | 0.00 | 0.00 | 62 | 1025.7 |
| 20260503192013 | 59 | 199 | 1.0 | 1.0 | 0.00 | 0.00 | 0.00 | 64 | 1025.7 |
| 20260503191512 | 59 | 171 | 0.0 | 1.0 | 0.00 | 0.00 | 0.00 | 65 | 1025.7 |
| 20260503191012 | 59 | 218 | 1.0 | 2.0 | 0.00 | 0.00 | 0.00 | 61 | 1025.7 |
| 20260503190508 | 59 | 266 | 3.0 | 4.0 | 0.00 | 0.00 | 0.00 | 62 | 1025.7 |
| 20260503190029 | 61 | 219 | 2.0 | 3.0 | 0.00 | 0.00 | 0.00 | 69 | 1025.7 |
| 20260503185509 | 61 | 172 | 0.0 | 1.0 | 0.00 | 0.00 | 0.00 | 67 | 1025.7 |
| 20260503185013 | 61 | 183 | 2.0 | 2.0 | 0.00 | 0.00 | 0.00 | 70 | 1025.7 |
| 20260503184012 | 61 | 215 | 2.0 | 2.0 | 0.00 | 0.00 | 0.00 | 69 | 1025.7 |
| 20260503183509 | 61 | 189 | 1.0 | 1.0 | 0.00 | 0.00 | 0.00 | 76 | 1025.7 |
| 20260503183022 | 61 | 273 | 4.0 | 4.0 | 0.00 | 0.00 | 0.00 | 76 | 1025.7 |
| 20260503182508 | 61 | 200 | 2.0 | 3.0 | 0.00 | 0.00 | 0.00 | 76 | 1025.7 |
| 20260503182012 | 63 | 197 | 2.0 | 2.0 | 0.00 | 0.00 | 0.00 | 75 | 1025.7 |
| 20260503181512 | 63 | 192 | 1.0 | 1.0 | 0.00 | 0.00 | 0.00 | 76 | 1025.7 |
| 20260503181011 | 63 | 232 | 1.0 | 1.0 | 0.00 | 0.00 | 0.00 | 75 | 1025.7 |
| 20260503180508 | 64 | 254 | 1.0 | 2.0 | 0.00 | 0.00 | 0.00 | 74 | 1025.7 |
| 20260503180028 | 64 | 178 | 1.0 | 1.0 | 0.00 | 0.00 | 0.00 | 70 | 1025.7 |
| 20260503175509 | 64 | 181 | 1.0 | 1.0 | 0.00 | 0.00 | 0.00 | 70 | 1025.7 |
| 20260503175013 | 64 | 168 | 0.0 | 0.0 | 0.00 | 0.00 | 0.00 | 71 | 1025.7 |
| 20260503174512 | 64 | 163 | 0.0 | 0.0 | 0.00 | 0.00 | 0.00 | 71 | 1025.7 |
| 20260503173509 | 66 | 159 | 0.0 | 0.0 | 0.00 | 0.00 | 0.00 | 69 | 1025.4 |
| 20260503173022 | 66 | 170 | 1.0 | 1.0 | 0.00 | 0.00 | 0.00 | 68 | 1025.4 |
| 20260503172509 | 66 | 167 | 0.0 | 1.0 | 0.00 | 0.00 | 0.00 | 67 | 1025.4 |
| 20260503172012 | 66 | 169 | 0.0 | 0.0 | 0.00 | 0.00 | 0.00 | 66 | 1025.7 |
| 20260503171512 | 66 | 191 | 2.0 | 2.0 | 0.00 | 0.00 | 0.00 | 66 | 1025.7 |
| 20260503171014 | 66 | 192 | 1.0 | 2.0 | 0.00 | 0.00 | 0.00 | 66 | 1025.7 |
| 20260503170509 | 68 | 175 | 0.0 | 1.0 | 0.00 | 0.00 | 0.00 | 64 | 1025.7 |
| 20260503151012 | 75 | 147 | 0.0 | 1.0 | 0.00 | 0.00 | 0.00 | 55 | 1026.1 |
| 20260503150509 | 75 | 161 | 1.0 | 1.0 | 0.00 | 0.00 | 0.00 | 56 | 1026.1 |
| 20260503131012 | 77 | 181 | 2.0 | 2.0 | 0.00 | 0.00 | 0.00 | 40 | 1026.8 |
| 20260503130510 | 79 | 146 | 0.0 | 1.0 | 0.00 | 0.00 | 0.00 | 41 | 1026.8 |
| 20260503110509 | 75 | 168 | 0.0 | 1.0 | 0.00 | 0.00 | 0.00 | 48 | 1028.1 |
| 20260503081512 | 68 | 290 | 4.0 | 6.0 | 0.00 | 0.00 | 0.00 | 48 | 1027.8 |
| 20260503081012 | 68 | 266 | 3.0 | 4.0 | 0.00 | 0.00 | 0.00 | 53 | 1027.8 |
| 20260503080508 | 70 | 219 | 0.0 | 1.0 | 0.00 | 0.00 | 0.00 | 51 | 1027.8 |
| 20260503072508 | 68 | 152 | 1.0 | 1.0 | 0.00 | 0.00 | 0.00 | 56 | 1028.1 |
| 20260503072012 | 70 | 173 | 0.0 | 1.0 | 0.00 | 0.00 | 0.00 | 55 | 1028.1 |
| 20260503071512 | 70 | 163 | 0.0 | 1.0 | 0.00 | 0.00 | 0.00 | 57 | 1028.1 |
| 20260503071012 | 70 | 170 | 0.0 | 1.0 | 0.00 | 0.00 | 0.00 | 56 | 1028.1 |
| 20260503070509 | 70 | 141 | 1.0 | 1.0 | 0.00 | 0.00 | 0.00 | 56 | 1028.1 |
| 20260503055012 | 61 | 174 | 0.0 | 0.0 | 0.00 | 0.00 | 0.00 | 65 | 1028.1 |
| 20260503054511 | 61 | 179 | 0.0 | 0.0 | 0.00 | 0.00 | 0.00 | 63 | 1028.1 |
| 20260503054012 | 61 | 183 | 0.0 | 1.0 | 0.00 | 0.00 | 0.00 | 63 | 1028.1 |
| 20260503053509 | 61 | 185 | 0.0 | 1.0 | 0.00 | 0.00 | 0.00 | 62 | 1028.1 |
| 20260503053021 | 61 | 165 | 1.0 | 1.0 | 0.00 | 0.00 | 0.00 | 62 | 1028.1 |
| 20260503052508 | 57 | 209 | 1.0 | 1.0 | 0.00 | 0.00 | 0.00 | 63 | 1028.1 |
| 20260503052012 | 57 | 168 | 0.0 | 0.0 | 0.00 | 0.00 | 0.00 | 64 | 1028.1 |
| 20260503051512 | 57 | 167 | 0.0 | 0.0 | 0.00 | 0.00 | 0.00 | 66 | 1028.1 |
| 20260503051012 | 55 | 169 | 0.0 | 0.0 | 0.00 | 0.00 | 0.00 | 69 | 1028.1 |
| 20260503050509 | 54 | 174 | 0.0 | 0.0 | 0.00 | 0.00 | 0.00 | 66 | 1028.1 |
| 20260503050029 | 54 | 177 | 0.0 | 1.0 | 0.00 | 0.00 | 0.00 | 67 | 1028.1 |
| 20260503045511 | 55 | 170 | 0.0 | 1.0 | 0.00 | 0.00 | 0.00 | 65 | 1028.1 |
| 20260503045012 | 55 | 173 | 1.0 | 1.0 | 0.00 | 0.00 | 0.00 | 63 | 1028.1 |
| 20260503044511 | 55 | 258 | 3.0 | 4.0 | 0.00 | 0.00 | 0.00 | 60 | 1028.1 |
| 20260503044012 | 55 | 241 | 3.0 | 4.0 | 0.00 | 0.00 | 0.00 | 60 | 1028.1 |
| 20260503043508 | 55 | 250 | 2.0 | 6.0 | 0.00 | 0.00 | 0.00 | 60 | 1028.1 |
| 20260503043021 | 55 | 276 | 2.0 | 4.0 | 0.00 | 0.00 | 0.00 | 60 | 1028.1 |
| 20260503042509 | 55 | 187 | 2.0 | 3.0 | 0.00 | 0.00 | 0.00 | 60 | 1028.1 |
| 20260503042012 | 55 | 270 | 4.0 | 6.0 | 0.00 | 0.00 | 0.00 | 60 | 1028.1 |
| 20260503041511 | 54 | 213 | 2.0 | 4.0 | 0.00 | 0.00 | 0.00 | 59 | 1028.1 |
| 20260503041012 | 54 | 180 | 1.0 | 1.0 | 0.00 | 0.00 | 0.00 | 60 | 1028.1 |
| 20260503040508 | 55 | 295 | 3.0 | 3.0 | 0.00 | 0.00 | 0.00 | 59 | 1028.1 |
| 20260503040030 | 55 | 257 | 4.0 | 6.0 | 0.00 | 0.00 | 0.00 | 59 | 1028.1 |
| 20260503035508 | 54 | 268 | 2.0 | 2.0 | 0.00 | 0.00 | 0.00 | 60 | 1028.1 |
| 20260503035012 | 54 | 177 | 1.0 | 1.0 | 0.00 | 0.00 | 0.00 | 61 | 1028.1 |
| 20260503034512 | 54 | 171 | 0.0 | 1.0 | 0.00 | 0.00 | 0.00 | 60 | 1028.1 |
| 20260503034012 | 54 | 264 | 3.0 | 3.0 | 0.00 | 0.00 | 0.00 | 60 | 1028.1 |
| 20260503033508 | 54 | 271 | 2.0 | 2.0 | 0.00 | 0.00 | 0.00 | 59 | 1028.1 |
| 20260503033021 | 54 | 298 | 4.0 | 4.0 | 0.00 | 0.00 | 0.00 | 59 | 1028.1 |
| 20260503032509 | 54 | 202 | 1.0 | 2.0 | 0.00 | 0.00 | 0.00 | 60 | 1028.1 |
| 20260503032012 | 54 | 180 | 1.0 | 3.0 | 0.00 | 0.00 | 0.00 | 58 | 1028.1 |
| 20260503031512 | 54 | 264 | 2.0 | 6.0 | 0.00 | 0.00 | 0.00 | 59 | 1028.1 |
| 20260503031012 | 54 | 188 | 0.0 | 1.0 | 0.00 | 0.00 | 0.00 | 61 | 1028.1 |
| 20260503030508 | 52 | 188 | 1.0 | 2.0 | 0.00 | 0.00 | 0.00 | 62 | 1028.1 |
| 20260503030032 | 52 | 195 | 1.0 | 1.0 | 0.00 | 0.00 | 0.00 | 63 | 1028.1 |
| 20260503025509 | 52 | 176 | 0.0 | 0.0 | 0.00 | 0.00 | 0.00 | 65 | 1028.1 |
| 20260503025012 | 52 | 179 | 0.0 | 0.0 | 0.00 | 0.00 | 0.00 | 63 | 1028.1 |
| 20260503024511 | 52 | 201 | 1.0 | 1.0 | 0.00 | 0.00 | 0.00 | 62 | 1028.1 |
| 20260503024012 | 52 | 174 | 0.0 | 0.0 | 0.00 | 0.00 | 0.00 | 63 | 1028.1 |
| 20260503023508 | 52 | 173 | 0.0 | 1.0 | 0.00 | 0.00 | 0.00 | 65 | 1028.1 |
| 20260503023021 | 52 | 169 | 0.0 | 0.0 | 0.00 | 0.00 | 0.00 | 65 | 1028.1 |
| 20260503022509 | 52 | 165 | 1.0 | 1.0 | 0.00 | 0.00 | 0.00 | 63 | 1028.1 |
| 20260503022012 | 52 | 174 | 0.0 | 0.0 | 0.00 | 0.00 | 0.00 | 64 | 1028.1 |
| 20260503021512 | 52 | 179 | 0.0 | 0.0 | 0.00 | 0.00 | 0.00 | 64 | 1028.1 |
| 20260503021012 | 52 | 171 | 0.0 | 0.0 | 0.00 | 0.00 | 0.00 | 63 | 1028.1 |
| 20260503020509 | 52 | 175 | 0.0 | 0.0 | 0.00 | 0.00 | 0.00 | 63 | 1028.1 |
| 20260503020031 | 54 | 170 | 0.0 | 0.0 | 0.00 | 0.00 | 0.00 | 61 | 1028.1 |
| 20260503015508 | 54 | 190 | 1.0 | 1.0 | 0.00 | 0.00 | 0.00 | 60 | 1028.1 |
| 20260503015012 | 54 | 171 | 1.0 | 1.0 | 0.00 | 0.00 | 0.00 | 59 | 1028.1 |
| 20260503014512 | 54 | 175 | 1.0 | 1.0 | 0.00 | 0.00 | 0.00 | 59 | 1028.1 |
| 20260503014012 | 54 | 218 | 1.0 | 1.0 | 0.00 | 0.00 | 0.00 | 60 | 1028.1 |
| 20260503013508 | 54 | 175 | 0.0 | 0.0 | 0.00 | 0.00 | 0.00 | 60 | 1028.1 |
| 20260503013021 | 54 | 175 | 0.0 | 0.0 | 0.00 | 0.00 | 0.00 | 59 | 1028.1 |
| 20260503012509 | 54 | 170 | 0.0 | 0.0 | 0.00 | 0.00 | 0.00 | 61 | 1028.1 |
| 20260503012013 | 54 | 169 | 0.0 | 0.0 | 0.00 | 0.00 | 0.00 | 59 | 1028.1 |
| 20260503011512 | 55 | 171 | 1.0 | 1.0 | 0.00 | 0.00 | 0.00 | 57 | 1028.1 |
| 20260503011013 | 55 | 223 | 2.0 | 2.0 | 0.00 | 0.00 | 0.00 | 55 | 1028.1 |
| 20260503010508 | 55 | 254 | 2.0 | 3.0 | 0.00 | 0.00 | 0.00 | 56 | 1028.1 |
| 20260503010032 | 55 | 238 | 1.0 | 1.0 | 0.00 | 0.00 | 0.00 | 55 | 1028.5 |
| 20260503005509 | 55 | 259 | 2.0 | 2.0 | 0.00 | 0.00 | 0.00 | 57 | 1028.5 |
| 20260503005012 | 54 | 200 | 1.0 | 3.0 | 0.00 | 0.00 | 0.00 | 57 | 1028.5 |
| 20260503004512 | 54 | 175 | 0.0 | 1.0 | 0.00 | 0.00 | 0.00 | 59 | 1028.5 |
| 20260503004012 | 54 | 223 | 1.0 | 1.0 | 0.00 | 0.00 | 0.00 | 57 | 1028.5 |
| 20260503003508 | 54 | 173 | 0.0 | 0.0 | 0.00 | 0.00 | 0.00 | 60 | 1028.5 |
| 20260503003021 | 54 | 174 | 0.0 | 0.0 | 0.00 | 0.00 | 0.00 | 59 | 1028.5 |
| 20260503002508 | 55 | 180 | 1.0 | 2.0 | 0.00 | 0.00 | 0.00 | 57 | 1028.5 |
| 20260503002012 | 55 | 178 | 0.0 | 0.0 | 0.00 | 0.00 | 0.00 | 57 | 1028.5 |
| 20260503001511 | 55 | 220 | 1.0 | 1.0 | 0.00 | 0.00 | 0.00 | 55 | 1028.5 |
| 20260503001012 | 55 | 214 | 2.0 | 3.0 | 0.00 | 0.00 | 0.00 | 55 | 1028.5 |
| 20260503000509 | 55 | 235 | 2.0 | 2.0 | 0.00 | 0.00 | 0.00 | 55 | 1028.5 |
| 20260503000034 | 55 | 226 | 2.0 | 2.0 | 0.00 | 0.00 | 0.00 | 55 | 1028.5 |
| 20260502235508 | 55 | 208 | 2.0 | 3.0 | 0.00 | 0.00 | 0.00 | 54 | 1028.5 |
| 20260502235012 | 55 | 267 | 2.0 | 2.0 | 0.00 | 0.00 | 0.00 | 54 | 1028.5 |
| 20260502234511 | 55 | 297 | 4.0 | 4.0 | 0.00 | 0.00 | 0.00 | 55 | 1028.8 |
| 20260502234012 | 55 | 175 | 0.0 | 1.0 | 0.00 | 0.00 | 0.00 | 55 | 1028.8 |
| 20260502233509 | 55 | 169 | 0.0 | 1.0 | 0.00 | 0.00 | 0.00 | 55 | 1028.8 |
| 20260502233021 | 55 | 182 | 1.0 | 2.0 | 0.00 | 0.00 | 0.00 | 55 | 1028.8 |
| 20260502232509 | 55 | 188 | 1.0 | 1.0 | 0.00 | 0.00 | 0.00 | 54 | 1028.8 |
| 20260502232013 | 55 | 193 | 1.0 | 1.0 | 0.00 | 0.00 | 0.00 | 55 | 1028.8 |
| 20260502231511 | 55 | 173 | 2.0 | 2.0 | 0.00 | 0.00 | 0.00 | 54 | 1028.8 |
| 20260502231013 | 55 | 199 | 1.0 | 2.0 | 0.00 | 0.00 | 0.00 | 54 | 1028.8 |
| 20260502230509 | 55 | 218 | 2.0 | 2.0 | 0.00 | 0.00 | 0.00 | 53 | 1028.8 |
| 20260502230030 | 55 | 277 | 2.0 | 3.0 | 0.00 | 0.00 | 0.00 | 55 | 1028.8 |
| 20260502225509 | 55 | 194 | 1.0 | 1.0 | 0.00 | 0.00 | 0.00 | 55 | 1028.8 |
| 20260502225012 | 55 | 247 | 2.0 | 2.0 | 0.00 | 0.00 | 0.00 | 56 | 1028.8 |
| 20260502224511 | 55 | 174 | 2.0 | 2.0 | 0.00 | 0.00 | 0.00 | 57 | 1029.1 |
| 20260502224012 | 55 | 221 | 0.0 | 1.0 | 0.00 | 0.00 | 0.00 | 58 | 1029.1 |
| 20260502223509 | 55 | 170 | 0.0 | 0.0 | 0.00 | 0.00 | 0.00 | 58 | 1029.1 |
| 20260502223022 | 55 | 170 | 0.0 | 0.0 | 0.00 | 0.00 | 0.00 | 58 | 1029.1 |
| 20260502222508 | 55 | 185 | 0.0 | 1.0 | 0.00 | 0.00 | 0.00 | 57 | 1029.1 |
| 20260502222012 | 57 | 195 | 1.0 | 1.0 | 0.00 | 0.00 | 0.00 | 54 | 1029.1 |
| 20260502221512 | 57 | 233 | 1.0 | 1.0 | 0.00 | 0.00 | 0.00 | 54 | 1029.1 |
| 20260502221012 | 57 | 217 | 2.0 | 2.0 | 0.00 | 0.00 | 0.00 | 53 | 1029.1 |
| 20260502220508 | 57 | 247 | 2.0 | 2.0 | 0.00 | 0.00 | 0.00 | 52 | 1029.1 |
| 20260502220032 | 57 | 280 | 3.0 | 5.0 | 0.00 | 0.00 | 0.00 | 51 | 1029.1 |
| 20260502215509 | 57 | 182 | 2.0 | 2.0 | 0.00 | 0.00 | 0.00 | 52 | 1029.1 |
| 20260502215011 | 57 | 199 | 2.0 | 3.0 | 0.00 | 0.00 | 0.00 | 52 | 1029.1 |
| 20260502214511 | 57 | 266 | 2.0 | 3.0 | 0.00 | 0.00 | 0.00 | 52 | 1028.8 |
| 20260502214012 | 57 | 285 | 4.0 | 4.0 | 0.00 | 0.00 | 0.00 | 52 | 1028.8 |
| 20260502213508 | 57 | 278 | 3.0 | 6.0 | 0.00 | 0.00 | 0.00 | 52 | 1028.8 |
| 20260502213021 | 57 | 250 | 2.0 | 3.0 | 0.00 | 0.00 | 0.00 | 51 | 1028.8 |
| 20260502212508 | 57 | 257 | 3.0 | 4.0 | 0.00 | 0.00 | 0.00 | 52 | 1028.8 |
| 20260502212012 | 57 | 268 | 3.0 | 5.0 | 0.00 | 0.00 | 0.00 | 52 | 1028.8 |
| 20260502211512 | 57 | 269 | 4.0 | 5.0 | 0.00 | 0.00 | 0.00 | 52 | 1028.8 |
| 20260502211012 | 57 | 253 | 2.0 | 3.0 | 0.00 | 0.00 | 0.00 | 53 | 1028.8 |
| 20260502210508 | 57 | 296 | 2.0 | 2.0 | 0.00 | 0.00 | 0.00 | 54 | 1028.8 |
| 20260502210030 | 57 | 230 | 1.0 | 3.0 | 0.00 | 0.00 | 0.00 | 53 | 1028.8 |
| 20260502205508 | 57 | 260 | 2.0 | 4.0 | 0.00 | 0.00 | 0.00 | 55 | 1028.8 |
| 20260502205011 | 57 | 258 | 2.0 | 2.0 | 0.00 | 0.00 | 0.00 | 56 | 1028.8 |
| 20260502204511 | 57 | 216 | 1.0 | 2.0 | 0.00 | 0.00 | 0.00 | 56 | 1028.8 |
| 20260502204011 | 57 | 172 | 0.0 | 1.0 | 0.00 | 0.00 | 0.00 | 56 | 1028.8 |
| 20260502203508 | 57 | 244 | 2.0 | 3.0 | 0.00 | 0.00 | 0.00 | 56 | 1028.8 |
| 20260502203021 | 57 | 278 | 4.0 | 4.0 | 0.00 | 0.00 | 0.00 | 55 | 1028.8 |
| 20260502202509 | 57 | 218 | 1.0 | 1.0 | 0.00 | 0.00 | 0.00 | 56 | 1028.8 |
| 20260502202012 | 57 | 186 | 1.0 | 1.0 | 0.00 | 0.00 | 0.00 | 57 | 1029.1 |
| 20260502201511 | 57 | 194 | 2.0 | 2.0 | 0.00 | 0.00 | 0.00 | 57 | 1029.1 |
| 20260502201012 | 57 | 170 | 0.0 | 0.0 | 0.00 | 0.00 | 0.00 | 58 | 1029.1 |
| 20260502200508 | 57 | 199 | 1.0 | 1.0 | 0.00 | 0.00 | 0.00 | 57 | 1029.1 |
| 20260502200028 | 57 | 205 | 2.0 | 2.0 | 0.00 | 0.00 | 0.00 | 56 | 1029.1 |
| 20260502195508 | 57 | 251 | 2.0 | 3.0 | 0.00 | 0.00 | 0.00 | 55 | 1029.1 |